This is the latest recevied weather packets stored in our database for station/object WP3OF. If no packets are shown the sender has not sent any weather packets the latest 10 day(s).
| Time | Temp. | Humidity | Pressure | Rain* | Wind** | Luminosity | Snow |
|---|---|---|---|---|---|---|---|
| 1788608992 | 27.78° C | 77% | 1017.3 hPa | 0 mm | - | - | - |
| 1788608692 | 27.22° C | 77% | 1017.3 hPa | 0 mm | - | - | - |
| 1788608390 | 27.22° C | 78% | 1017.2 hPa | 0 mm | - | - | - |
| 1788608086 | 27.22° C | 77% | 1017.5 hPa | 0 mm | - | - | - |
| 1788607781 | 26.67° C | 76% | 1017.3 hPa | 0 mm | - | - | - |
| 1788607477 | 26.67° C | 78% | 1017.3 hPa | 0 mm | - | - | - |
| 1788607172 | 26.11° C | 80% | 1017.1 hPa | 0 mm | - | - | - |
| 1788606872 | 26.11° C | 80% | 1017 hPa | 0 mm | - | - | - |
| 1788606566 | 25.56° C | 81% | 1017.4 hPa | 0 mm | - | - | - |
| 1788606260 | 25.56° C | 81% | 1017 hPa | 0 mm | - | - | - |
| 1788605954 | 25.56° C | 81% | 1016.9 hPa | 0 mm | - | - | - |
| 1788605648 | 25.56° C | 82% | 1016.9 hPa | 0 mm | - | - | - |
| 1788605343 | 25° C | 83% | 1016.8 hPa | 0 mm | - | - | - |
| 1788605038 | 25° C | 83% | 1017.1 hPa | 0 mm | - | - | - |
| 1788604733 | 25° C | 83% | 1016.8 hPa | 0 mm | - | - | - |
| 1788604429 | 25.56° C | 83% | 1016.8 hPa | 0 mm | - | - | - |
| 1788604124 | 25.56° C | 82% | 1016.5 hPa | 0 mm | - | - | - |
| 1788603821 | 25.56° C | 83% | 1016.5 hPa | 0 mm | - | - | - |
| 1788603520 | 25° C | 83% | 1016.5 hPa | 0 mm | - | - | - |
| 1788603218 | 25.56° C | 83% | 1016.3 hPa | 0 mm | - | - | - |
| 1788602913 | 25.56° C | 83% | 1016.5 hPa | 0 mm | - | - | - |
| 1788602609 | 25.56° C | 82% | 1016.3 hPa | 0 mm | - | - | - |
| 1788602303 | 25.56° C | 83% | 1016.3 hPa | 0 mm | - | - | - |
| 1788602002 | 25.56° C | 83% | 1016.4 hPa | 0 mm | - | - | - |
| 1788601697 | 25.56° C | 83% | 1016.8 hPa | 0 mm | - | - | - |
* Rain latest hour (hover to see other rain measurements)
** Current wind speed in m/s (hover to see current wind gust speed)